Terminal Aerodrome Forecast
Issued by NWS Charleston, SC

Home | Current Version | Previous Version | Text Only | Print | Product List | Glossary On
Versions: 1 2 3 4 5 6 7 8 9 10 11 12 13 14 15
000
FTUS42 KCHS 280522
TAFSAV
TAF
KSAV 280522Z 2806/2906 24003KT P6SM SCT200
     FM281500 26010KT P6SM FEW050 SCT200
     FM282000 22009KT P6SM SCT200=

USA.gov is the U.S. government's official web portal to all federal, state and local government web resources and services.